Starlink 31460

operational
NORAD ID: 59008 Int'l Des: 2024-036 Owner: SPXS Country: US Constellation: starlink
LEOCIRCULAR

Starlink 31460について

説明を読み込み中...

リアルタイム位置

3D地球を読み込み中...

次回通過

高度履歴

Altitude vs Time

uPlot chart will show altitude changes over time

軌道要素

1 59008U 24036L 26036.24357517 -.00000201 00000-0 53409-5 0 9998
2 59008 53.1580 228.9782 0001268 100.5691 259.5453 15.30196732110353
Epoch: Feb 5, 2026 • Age: 6 hours

現在のステータス

高度 486.1 km
速度 7.62 km/s
衛星直下点 -33.20°S, 128.65°E
打ち上げ日 Feb 23, 2024
運用期間 1.9 years
タイプ internet

技術仕様

分類 Payload
質量 730.00 kg
乾燥質量 700.00 kg
総質量 730.00 kg
長さ 0.30 m
直径 4.10 m
スパン 29.00 m
形状 Box + pan
製造者 SPXS
バスタイプ Starlink V2M
フェーズステータス In Orbit
所有者/国 SPXS/US

大規模コンステレーション

Loading constellations...